Weather past 2 weeks in Adamstown, Pitcairn Islands

Now
75 °F

Passing clouds.


Feels Like: 77 °F
Forecast: 75 / 79 °F
Wind: 10 mph from South

Location: Rikitea

Current Time: Apr 25, 2015 at 6:59:22 PM

Latest Report: Apr 25, 2015 at 6:00 PM


Visibility: 31 mi

Pressure: 30.04 "Hg

Humidity: 67%

Dew point: 64 °F

Location of AdamstownLocation

Historic Weather in Adamstown — Graph

°F

Adamstown temperature yesterday

Maximum temperature yesterday: 78 °F (at 2:00 PM)
Minimum temperature yesterday: 73 °F (at 5:00 AM)
Average temperature yesterday: 75 °F

Past Weeks' High & Low Weather Summary

 TemperatureHumidityPressure
High84 °F (Apr 12, 3:00 PM)100% (Apr 13, 6:00 PM)30.14 "Hg (Apr 13, 6:00 PM)
Low69 °F (Apr 18, 6:00 AM)49% (Apr 22, 1:00 PM)29.85 "Hg (Apr 15, 5:00 PM)
Average74 °F72%29.99 "Hg
* Reported Apr 10 5:00 PM — Apr 25 5:00 PM, Adamstown, Weather by CustomWeather, © 2015

Note: Actual official high and low records may vary slightly from our data, if they occured in-between our weather recording intervals... More about our weather records

Advertising

Adamstown weather history for previous 24 hours

 ConditionsComfort  
Time TempWeatherWind HumidityBarometerVisibility
5:00 PM
Sat, Apr 25
75 °FPassing clouds.9 mph65%30.03 "Hg31 mi
4:00 PM78 °FPassing clouds.9 mph62%30.03 "Hg31 mi
3:00 PM78 °FPassing clouds.8 mph60%30.03 "Hg31 mi
2:00 PM78 °FPassing clouds.9 mph61%30.04 "Hg31 mi
1:00 PM77 °FScattered clouds.8 mph64%30.07 "Hg31 mi
12:00 PM79 °FScattered clouds.7 mph61%30.08 "Hg31 mi
11:00 AM78 °FScattered clouds.8 mph63%30.10 "Hg31 mi
10:00 AM78 °FScattered clouds.9 mph65%30.09 "Hg31 mi
9:00 AM78 °FScattered clouds.5 mph62%30.07 "Hg25 mi
8:00 AM74 °FScattered clouds.12 mph71%30.06 "Hg25 mi
7:00 AM74 °FScattered clouds.10 mph70%30.03 "Hg19 mi
6:00 AM73 °FMild.9 mph70%30.01 "HgN/A
5:00 AM74 °FMild.10 mph69%30.01 "HgN/A
4:00 AM73 °FMild.3 mph68%30.02 "HgN/A
3:00 AM73 °FMild.3 mph66%30.03 "HgN/A
2:00 AM73 °FMild.2 mph62%30.04 "HgN/A
1:00 AM74 °FMild.7 mph64%30.05 "HgN/A
12:00 AM74 °FMild.3 mph64%30.06 "HgN/A
11:00 PM
Fri, Apr 24
74 °FMild.10 mph67%30.06 "HgN/A
10:00 PM74 °FMild.13 mph63%30.07 "HgN/A
9:00 PM74 °FMild.10 mph64%30.07 "HgN/A
8:00 PM74 °FMild.13 mph59%30.06 "HgN/A
7:00 PM74 °FMild.13 mph61%30.05 "HgN/A
6:00 PM73 °FPassing clouds.13 mph65%30.05 "Hg25 mi
Weather by CustomWeather, © 2015

See weather overviewHow to use our weather pages